"Pseudo-MPEC" for ST26H76

Created 2026 Aug 26 0:35:11 UT using Find_Orb

Click here for an explanation of pseudo-MPECs

 
 Astrometry: 
     ST26H76* C2026 08 22.40808700 04 15.681+08 24 43.04   ~8OFo 19.18GVNEOCPU68
     ST26H76  C2026 08 22.41142800 04 23.976+08 23 40.05   ~8OFo 19.18GVNEOCPU68
     ST26H76  C2026 08 22.42515500 04 57.991+08 19 22.56   ~8OFo 19.31GVNEOCPU74
     ST26H76  C2026 08 22.42699200 05 02.631+08 18 48.48   ~8OFo 19.31GVNEOCPU74

Station data:
(U68) JPL SynTrack Robotic Telescope, Auberry  (N37.070387 W119.412990)
   US/California.  Observers N. Saini, C. Zhai, R. Trahan, M. Zhan, M. Shao.
   0.28-m f/2.2 Schmidt + CCD.
(U74) JPL SynTrack Robotic Telescope 2, Auberry  (N37.070341 W119.412800)
   US/California.  Observers N. Saini, C. Zhai, R. Trahan, M. Zhan, M. Shao.
   0.36-m f/2.2 Schmidt.

Orbital elements:  ST26H76
   Perihelion 2026 Oct 8.815669 +/- 26.9 TT = 19:34:33.8 (JD 2461322.315669)
Epoch 2026 Aug 22.0 TT = JDT 2461274.5   Earth MOID: 0.0064   Ve: 0.0709
M 338.120428931 +/- 28              (J2000 ecliptic)             AutoNEOCP
n   0.457581614 +/- 0.382           Peri.  298.921845 +/- 50
a   1.667850061 +/- 0.928           Node   150.269339 +/- 0.59
e   0.78646115 +/- 0.241            Incl.   29.453638 +/- 10
P   2.154/786.730d         H 25.68  G  0.15   U 12.1  SR
q 0.356150777 +/- 0.264    Q 2.979549345 +/- 23.1
From 4 observations 2026 Aug. 22 (27.2 min); mean residual 0".44
Residuals in arcseconds: 
260822 U68  .48-  .44+    260822 U74  .38-  .34-    
260822 U68  .63+  .50-    260822 U74  .23+  .39+    

Ephemerides (geocentric):
Date (UTC) HH   RA             Dec           delta  r     elong  mag " sig PA
---- --------  ------------   ------------  ------ ------ -----  --- --------
2026 08 26 01  09 41 31.615   -22 12 04.44  .03618 .98085  34.0 26??  47d  83
2026 08 26 02  09 42 49.889   -22 06 44.81  .03686 .98021  33.8 26??  47d  83
2026 08 26 03  09 44 05.216   -22 01 34.48  .03755 .97958  33.6 26??  47d  83
2026 08 26 04  09 45 17.755   -21 56 33.10  .03823 .97895  33.5 26??  47d  84
2026 08 26 05  09 46 27.654   -21 51 40.33  .03892 .97832  33.3 26??  47d  84
2026 08 26 06  09 47 35.052   -21 46 55.83  .03961 .97768  33.2 26??  47d  84
2026 08 26 07  09 48 40.077   -21 42 19.29  .04030 .97705  33.0 26??  47d  84
2026 08 26 08  09 49 42.850   -21 37 50.41  .04099 .97642  32.9 26??  47d  84
2026 08 26 09  09 50 43.483   -21 33 28.88  .04168 .97578  32.8 26??  47d  84
2026 08 26 10  09 51 42.081   -21 29 14.43  .04237 .97515  32.7 26??  47d  84
2026 08 26 11  09 52 38.743   -21 25 06.80  .04306 .97451  32.5 26??  47d  84
2026 08 26 12  09 53 33.562   -21 21 05.72  .04376 .97388  32.4 26??  47d  84
2026 08 26 13  09 54 26.625   -21 17 10.96  .04445 .97325  32.3 26??  47d  84
2026 08 26 14  09 55 18.013   -21 13 22.27  .04514 .97261  32.2 26??  47d  84
2026 08 26 15  09 56 07.802   -21 09 39.44  .04584 .97198  32.1 26??  47d  84
2026 08 26 16  09 56 56.066   -21 06 02.25  .04654 .97134  32.0 26??  47d  84
2026 08 26 17  09 57 42.871   -21 02 30.49  .04723 .97071  31.9 26??  47d  84
2026 08 26 18  09 58 28.282   -20 59 03.97  .04793 .97007  31.8 26??  47d  84
2026 08 26 19  09 59 12.360   -20 55 42.51  .04863 .96944  31.7 26??  47d  84
2026 08 26 20  09 59 55.160   -20 52 25.91  .04932 .96880  31.6 27??  47d  84
2026 08 26 21  10 00 36.738   -20 49 14.01  .05002 .96816  31.5 27??  47d  84
2026 08 26 22  10 01 17.145   -20 46 06.65  .05072 .96753  31.4 27??  47d  84
2026 08 26 23  10 01 56.427   -20 43 03.66  .05142 .96689  31.3 27??  47d  84
2026 08 27 00  10 02 34.631   -20 40 04.90  .05212 .96626  31.3 27??  47d  84
2026 08 27 01  10 03 11.801   -20 37 10.22  .05282 .96562  31.2 27??  47d  84
2026 08 27 02  10 03 47.976   -20 34 19.48  .05352 .96498  31.1 27??  47d  84
2026 08 27 03  10 04 23.196   -20 31 32.56  .05422 .96434  31.0 27??  47d  84
2026 08 27 04  10 04 57.498   -20 28 49.32  .05492 .96371  31.0 27??  47d  85
2026 08 27 05  10 05 30.917   -20 26 09.64  .05562 .96307  30.9 27??  47d  85
2026 08 27 06  10 06 03.486   -20 23 33.40  .05633 .96243  30.8 27??  47d  85
2026 08 27 07  10 06 35.237   -20 21 00.50  .05703 .96180  30.8 27??  47d  85
2026 08 27 08  10 07 06.199   -20 18 30.82  .05773 .96116  30.7 27??  47d  85
2026 08 27 09  10 07 36.402   -20 16 04.27  .05843 .96052  30.6 27??  47d  85
2026 08 27 10  10 08 05.873   -20 13 40.73  .05914 .95988  30.6 27??  47d  85
2026 08 27 11  10 08 34.637   -20 11 20.13  .05984 .95924  30.5 27??  47d  85
2026 08 27 12  10 09 02.720   -20 09 02.36  .06054 .95860  30.4 27??  47d  85
2026 08 27 13  10 09 30.146   -20 06 47.33  .06125 .95796  30.4 27??  47d  85
2026 08 27 14  10 09 56.936   -20 04 34.97  .06195 .95733  30.3 27??  47d  85
2026 08 27 15  10 10 23.113   -20 02 25.20  .06266 .95669  30.3 27??  47d  85
2026 08 27 16  10 10 48.697   -20 00 17.93  .06336 .95605  30.2 27??  47d  85
2026 08 27 17  10 11 13.708   -19 58 13.08  .06407 .95541  30.1 27??  47d  85
2026 08 27 18  10 11 38.165   -19 56 10.59  .06477 .95477  30.1 27??  47d  85
2026 08 27 19  10 12 02.086   -19 54 10.39  .06548 .95413  30.0 27??  47d  85
2026 08 27 20  10 12 25.488   -19 52 12.41  .06618 .95349  30.0 27??  47d  85
2026 08 27 21  10 12 48.387   -19 50 16.59  .06689 .95285  29.9 27??  47d  85
2026 08 27 22  10 13 10.800   -19 48 22.86  .06760 .95221  29.9 27??  46d  85
2026 08 27 23  10 13 32.742   -19 46 31.16  .06830 .95157  29.8 27??  46d  85
2026 08 28 00  10 13 54.227   -19 44 41.43  .06901 .95092  29.8 27??  46d  85